Florence, SC

10:09 PM EST on December 10, 2019 (GMT -0500)
Florence Regional

Weather History for KFLO - November, 2019

Change the Weather History Date:

Thursday, November 14, 2019

  Actual Average Record
Temperature  
Mean Temperature 38 °F 56 °F  
Max Temperature 48 °F 68 °F 84 °F (1993)
Min Temperature 28 °F 44 °F 22 °F (2013)
Degree Days  
Heating Degree Days 27 10  
Month to date heating degree days 194 113  
Since 1 July heating degree days 222 230  
Cooling Degree Days 0 1  
Month to date cooling degree days 0 14  
Year to date cooling degree days 2660 2056  
Moisture  
Dew Point 33 °F    
Average Humidity 79    
Maximum Humidity 96    
Minimum Humidity 57    
Precipitation  
Precipitation 0.07 in 0.09 in 1.14 in (2008)
Month to date precipitation 1.17 1.22  
Year to date precipitation 36.80 38.45  
Sea Level Pressure  
Sea Level Pressure 30.32 in    
Wind  
Wind Speed 7 mph ()    
Max Wind Speed 14 mph    
Max Gust Speed 16 mph    
Visibility 8.4 miles    
Events Rain    
T = Trace of Precipitation, MM = Missing Value Source: Averaged Metar Reports

Daily Weather History Graph

Daily Weather History Graph

Search for Another Location

Airport or City:

Astronomy

Nov. 14, 2019 Rise Set
Actual Time 6:50 AM EST 5:15 PM EST
Civil Twilight 6:23 AM EST 5:42 PM EST
Nautical Twilight 5:53 AM EST 6:12 PM EST
Astronomical Twilight 5:24 AM EST 6:42 PM EST
Moon 7:03 PM EST (11/14) 8:41 AM EST (11/14)
Length of Visible Light 11h 18m
Length of Day
10h 25m
Waning Gibbous, 95% of the Moon is Illuminated
Nov 14
Waning Gibbous
Nov 19
Last Quarter
Nov 26
New
Dec 4
First Quarter
Dec 12
Full

Hourly Weather History & Observations

Time (EST) Temp. Windchill Dew Point Humidity Pressure Visibility Wind Dir Wind Speed Gust Speed Precip Events Conditions
12:53 AM 30.9 °F 22.8 °F 19.9 °F 64% 30.39 in 10.0 mi ENE 9.2 mph - N/A   Clear
1:53 AM 30.0 °F 22.4 °F 19.9 °F 66% 30.36 in 10.0 mi NE 8.1 mph - N/A   Clear
2:53 AM 30.0 °F 21.7 °F 19.9 °F 66% 30.36 in 10.0 mi NE 9.2 mph - N/A   Clear
3:53 AM 30.0 °F 24.1 °F 21.0 °F 69% 30.35 in 10.0 mi ENE 5.8 mph - N/A   Clear
4:53 AM 28.9 °F 25.2 °F 21.0 °F 72% 30.37 in 10.0 mi North 3.5 mph - N/A   Clear
5:53 AM 30.0 °F 23.2 °F 21.9 °F 72% 30.37 in 10.0 mi NNE 6.9 mph - N/A   Mostly Cloudy
6:53 AM 30.9 °F 22.8 °F 23.0 °F 72% 30.37 in 10.0 mi NNE 9.2 mph - N/A   Mostly Cloudy
7:53 AM 33.1 °F 26.9 °F 24.1 °F 70% 30.38 in 10.0 mi NE 6.9 mph - N/A   Mostly Cloudy
8:53 AM 36.0 °F 29.6 °F 25.0 °F 64% 30.39 in 10.0 mi NNE 8.1 mph - N/A   Partly Cloudy
9:53 AM 39.0 °F 32.3 °F 27.0 °F 62% 30.39 in 10.0 mi NE 10.4 mph - N/A   Mostly Cloudy
10:53 AM 43.0 °F 38.2 °F 28.9 °F 58% 30.37 in 10.0 mi NE 8.1 mph - N/A   Partly Cloudy
11:36 AM 45.0 °F 41.2 °F 30.9 °F 58% 30.36 in 10.0 mi North 6.9 mph - N/A   Overcast
11:53 AM 45.0 °F 39.3 °F 30.9 °F 58% 30.34 in 10.0 mi North 11.5 mph - N/A   Overcast
12:53 PM 46.9 °F - 33.1 °F 59% 30.30 in 10.0 mi NNE 10.4 mph - N/A   Mostly Cloudy
1:53 PM 46.9 °F - 34.0 °F 61% 30.29 in 10.0 mi NE 8.1 mph - N/A   Overcast
3:53 PM 43.0 °F 38.2 °F 39.0 °F 86% 30.28 in 4.0 mi North 8.1 mph - 0.01 in Rain Light Rain
4:49 PM 42.8 °F 38.0 °F 39.2 °F 87% 30.29 in 10.0 mi NW 8.1 mph - 0.00 in   Overcast
4:53 PM 43.0 °F 38.2 °F 39.9 °F 89% 30.29 in 10.0 mi NNW 8.1 mph - 0.00 in   Overcast
5:53 PM 42.1 °F 36.6 °F 39.0 °F 89% 30.29 in 6.0 mi NNW 9.2 mph - 0.01 in Rain Light Rain
6:53 PM 41.0 °F 35.8 °F 39.0 °F 93% 30.27 in 10.0 mi North 8.1 mph - 0.00 in   Overcast
7:27 PM 41.0 °F 35.8 °F 39.0 °F 93% 30.27 in 2.5 mi North 8.1 mph - 0.02 in Rain Light Rain
7:41 PM 41.0 °F 35.2 °F 39.0 °F 93% 30.28 in 3.0 mi North 9.2 mph - 0.02 in Rain Light Rain
7:51 PM 41.0 °F 35.8 °F 39.2 °F 93% 30.28 in 5.0 mi North 8.1 mph - 0.03 in Rain Light Rain
7:53 PM 41.0 °F 35.2 °F 39.0 °F 93% 30.28 in 5.0 mi North 9.2 mph - 0.03 in Rain Light Rain
8:07 PM 41.0 °F 36.4 °F 39.0 °F 93% 30.28 in 2.5 mi North 6.9 mph - 0.01 in Rain Light Rain
8:20 PM 41.0 °F 36.4 °F 39.0 °F 93% 30.28 in 7.0 mi NNW 6.9 mph - 0.01 in Rain Light Rain
8:53 PM 41.0 °F 35.8 °F 39.9 °F 96% 30.27 in 9.0 mi North 8.1 mph - 0.01 in   Overcast
9:07 PM 42.1 °F 37.7 °F 39.9 °F 92% 30.27 in 7.0 mi North 6.9 mph - N/A   Overcast
9:39 PM 42.1 °F 37.1 °F 39.9 °F 92% 30.27 in 9.0 mi NNE 8.1 mph - N/A   Overcast
9:53 PM 42.1 °F 37.1 °F 39.9 °F 92% 30.27 in 10.0 mi North 8.1 mph - N/A   Overcast
10:07 PM 42.1 °F 36.6 °F 39.9 °F 92% 30.28 in 10.0 mi NNW 9.2 mph - N/A   Overcast
10:53 PM 42.1 °F 37.1 °F 39.9 °F 92% 30.27 in 10.0 mi North 8.1 mph - N/A   Overcast